Waarnemingen

Advertentie
Mijn weer
Europlatform, Nederland (6321): temperatuur & dauwpunt: 15.10.2018 16:00:00 - 21.10.2018 16:00:00 (CEST)Europlatform, Nederland (6321): water temperatuur: 15.10.2018 16:00:00 - 21.10.2018 16:00:00 (CEST)Europlatform, Nederland (6321): windsnelheid & windstoten: 15.10.2018 16:00:00 - 21.10.2018 16:00:00 (CEST)Europlatform, Nederland (6321): windrichting: 15.10.2018 16:00:00 - 21.10.2018 16:00:00 (CEST)Europlatform, Nederland (6321): luchtdruk: 15.10.2018 16:00:00 - 21.10.2018 16:00:00 (CEST)Europlatform, Nederland (6321): zicht: 15.10.2018 16:00:00 - 21.10.2018 16:00:00 (CEST)
Datum & Tijd tt [°C] td [°C] tw [°C] ff [km/u] ff [kn] fx [km/u] fx [kn] dd ppp [hPa] vv [km]
21.10.2018 16:00:00 15,2 12,5 15,0 28 15 32 18 ZZW 1026,7 8
21.10.2018 15:00:00 15,0 12,4 15,0 29 16 32 18 ZZW 1027,0 7
21.10.2018 14:00:00 14,9 12,2 15,0 28 15 29 16 Z 1027,4 7
21.10.2018 13:00:00 15,1 12,4 15,0 28 15 29 16 Z 1027,9 8
21.10.2018 12:00:00 15,1 12,2 15,0 28 15 29 16 ZZW 1028,3 8
21.10.2018 11:00:00 15,0 11,9 15,0 28 15 29 16 Z 1028,4 8
21.10.2018 10:00:00 14,9 11,8 15,0 26 14 29 16 ZZW 1028,5 7
21.10.2018 09:00:00 14,7 11,8 15,0 24 13 25 14 Z 1028,3 6
21.10.2018 08:00:00 14,7 11,9 15,0 22 12 25 14 Z 1028,1 6
21.10.2018 07:00:00 14,8 12,5 15,0 22 12 25 14 ZZW 1028,3 9
21.10.2018 06:00:00 14,6 12,4 15,0 28 15 29 16 ZZW 1028,5 9
21.10.2018 05:00:00 15,0 11,7 15,0 22 12 25 14 ZZW 1028,7 10
21.10.2018 04:00:00 15,0 11,2 15,0 22 12 22 12 ZZW 1029,1 10
21.10.2018 03:00:00 15,0 10,8 15,0 22 12 25 14 ZZW 1029,5 10
21.10.2018 02:00:00 15,0 11,0 15,0 21 11 22 12 ZZW 1030,0 10
21.10.2018 01:00:00 14,9 10,9 15,0 18 10 22 12 ZZW 1030,4 10
21.10.2018 00:00:00 14,8 11,0 15,0 16 9 18 10 ZZW 1030,6 10
20.10.2018 23:00:00 14,8 10,9 15,0 16 9 18 10 ZZW 1030,9 10
20.10.2018 22:00:00 14,7 10,6 15,0 15 8 18 10 ZZW 1030,9 10
20.10.2018 21:00:00 14,6 10,1 15,0 15 8 14 8 ZZW 1031,0 10
20.10.2018 20:00:00 14,6 9,7 15,0 11 6 14 8 ZW 1031,0 10
20.10.2018 19:00:00 14,5 9,8 15,0 11 6 14 8 ZW 1030,9 10
20.10.2018 18:00:00 14,7 9,7 15,0 13 7 14 8 WZW 1030,7 10
20.10.2018 17:00:00 14,7 9,5 15,0 11 6 18 10 ZW 1030,8 10
20.10.2018 16:00:00 14,7 9,3 15,0 13 7 18 10 ZW 1031,1 10
20.10.2018 15:00:00 15,0 9,3 15,0 15 8 18 10 WZW 1031,5 10
20.10.2018 14:00:00 14,5 8,8 15,0 15 8 14 8 ZW 1031,5 10
20.10.2018 13:00:00 14,6 8,9 15,0 9 5 18 10 WZW 1031,9 10
20.10.2018 12:00:00 14,8 8,9 15,0 13 7 22 12 WZW 1032,0 10
20.10.2018 11:00:00 14,4 9,2 15,0 15 8 18 10 ZZW 1031,5 10
20.10.2018 10:00:00 14,2 8,7 15,0 13 7 14 8 ZZW 1031,1 10
20.10.2018 09:00:00 14,0 8,7 15,0 8 4 11 6 ZW 1030,5 10
20.10.2018 08:00:00 13,9 8,5 15,0 4 2 7 4 - 1030,1 10
20.10.2018 07:00:00 13,8 8,2 15,0 4 2 7 4 - 1030,0 10
20.10.2018 06:00:00 13,6 8,0 15,0 2 1 4 2 - 1029,4 10
20.10.2018 05:00:00 13,6 7,7 15,0 2 1 4 2 - 1029,0 10
20.10.2018 04:00:00 13,6 7,3 15,0 4 2 7 4 - 1028,9 10
20.10.2018 03:00:00 13,6 7,5 15,0 8 4 11 6 NNO 1028,8 10
20.10.2018 02:00:00 13,5 7,3 15,0 9 5 14 8 N 1028,5 10
20.10.2018 01:00:00 13,6 7,3 15,0 8 4 14 8 N 1028,3 10
20.10.2018 00:00:00 13,5 6,6 15,0 13 7 14 8 NO 1028,2 10
19.10.2018 23:00:00 13,4 6,9 15,0 11 6 14 8 NNO 1028,3 10
19.10.2018 22:00:00 13,3 7,1 15,0 15 8 18 10 N 1028,2 10
19.10.2018 21:00:00 13,3 7,2 15,0 15 8 18 10 N 1027,4 10
19.10.2018 20:00:00 13,1 6,5 15,0 15 8 18 10 NNO 1027,0 10
19.10.2018 19:00:00 13,0 7,4 15,0 16 9 18 10 N 1026,3 10
19.10.2018 18:00:00 13,1 7,7 15,0 16 9 22 12 N 1026,0 10
19.10.2018 17:00:00 12,9 7,7 15,0 15 8 18 10 N 1025,8 10
19.10.2018 16:00:00 12,9 7,5 15,0 16 9 22 12 N 1025,8 10
19.10.2018 15:00:00 13,0 7,6 15,0 11 6 14 8 NNO 1026,0 10
19.10.2018 14:00:00 12,7 7,6 15,1 9 5 - - NNO 1026,0 10
19.10.2018 13:00:00 12,8 8,3 15,0 13 7 18 10 ONO 1026,2 10
19.10.2018 12:00:00 12,6 7,8 15,0 16 9 22 12 ONO 1026,3 10
19.10.2018 11:00:00 12,6 7,2 15,0 21 11 29 16 ONO 1026,1 10
19.10.2018 10:00:00 12,5 6,7 15,0 26 14 32 18 ONO 1025,7 10
19.10.2018 09:00:00 12,4 6,7 15,0 26 14 32 18 ONO 1025,9 10
19.10.2018 08:00:00 12,6 7,1 15,0 28 15 29 16 ONO 1025,7 10
19.10.2018 07:00:00 12,8 7,2 15,0 28 15 32 18 ONO 1025,8 10
19.10.2018 06:00:00 12,9 7,7 15,0 29 16 32 18 ONO 1025,8 10
19.10.2018 05:00:00 12,8 7,4 15,0 29 16 32 18 ONO 1025,7 10
19.10.2018 04:00:00 13,2 7,2 15,0 34 18 36 19 O 1025,7 10
19.10.2018 03:00:00 13,4 7,8 15,0 34 18 36 19 O 1025,5 10
19.10.2018 02:00:00 13,7 8,5 15,0 29 16 32 18 ONO 1025,6 10
19.10.2018 01:00:00 14,3 8,7 15,0 29 16 32 18 ONO 1025,8 10
19.10.2018 00:00:00 14,4 9,2 15,0 29 16 32 18 ONO 1025,8 10
18.10.2018 23:00:00 14,6 8,5 15,0 22 12 29 16 NO 1026,0 10
18.10.2018 22:00:00 14,7 8,5 15,0 26 14 36 19 NO 1026,2 10
18.10.2018 21:00:00 14,6 8,7 15,0 34 18 36 19 NO 1026,1 10
18.10.2018 20:00:00 14,8 8,1 15,0 29 16 32 18 NO 1025,9 10
18.10.2018 19:00:00 14,7 8,1 15,0 26 14 32 18 NNO 1025,8 10
18.10.2018 18:00:00 14,5 9,6 15,0 26 14 32 18 N 1025,5 10
18.10.2018 17:00:00 14,5 8,8 15,0 26 14 29 16 NNO 1025,6 10
18.10.2018 16:00:00 14,5 8,9 15,0 22 12 32 18 NNO 1025,9 36
18.10.2018 15:00:00 14,6 8,3 15,0 28 15 32 18 NNO 1026,1 10
18.10.2018 14:00:00 14,8 8,7 15,0 31 17 36 19 NNO 1026,0 10
18.10.2018 13:00:00 14,5 9,0 15,0 31 17 36 19 NNO 1026,1 10
18.10.2018 12:00:00 14,6 8,8 15,0 34 18 36 19 NNO 1026,3 10
18.10.2018 11:00:00 14,6 9,6 15,0 31 17 36 19 N 1026,1 10
18.10.2018 10:00:00 14,9 9,5 15,0 31 17 32 18 NNO 1025,6 10
18.10.2018 09:00:00 14,6 10,1 15,0 31 17 32 18 N 1025,0 10
18.10.2018 08:00:00 14,8 10,5 15,0 31 17 32 18 N 1024,5 10
18.10.2018 07:00:00 14,9 10,9 15,0 31 17 36 19 NNO 1024,0 10
18.10.2018 06:00:00 15,1 10,7 15,0 35 19 40 21 N 1023,8 10
18.10.2018 05:00:00 15,2 11,3 15,0 31 17 36 19 NNO 1023,6 7
18.10.2018 04:00:00 14,7 12,3 15,0 29 16 36 19 N 1023,4 10
18.10.2018 03:00:00 14,8 13,1 15,0 31 17 32 18 N 1023,3 10
18.10.2018 02:00:00 14,5 13,2 15,3 28 15 29 16 N 1023,3 10
18.10.2018 01:00:00 15,0 13,6 15,0 16 9 18 10 N 1023,1 10
18.10.2018 00:00:00 15,0 12,8 15,0 13 7 14 8 N 1022,8 10
17.10.2018 23:00:00 14,6 13,2 15,2 13 7 22 12 NNW 1022,5 10
17.10.2018 22:00:00 15,1 12,6 15,0 15 8 18 10 NNW 1022,2 10
17.10.2018 21:00:00 15,2 11,9 15,0 15 8 18 10 NNW 1021,5 10
17.10.2018 20:00:00 15,2 11,3 15,0 11 6 14 8 NW 1021,1 10
17.10.2018 19:00:00 15,4 11,2 15,0 11 6 14 8 WNW 1020,6 10
17.10.2018 18:00:00 16,0 11,0 15,0 11 6 18 10 W 1020,1 10
17.10.2018 17:00:00 16,4 10,8 15,0 13 7 18 10 WZW 1020,0 10
17.10.2018 16:00:00 16,2 10,8 15,0 18 10 22 12 WZW 1019,9 10
17.10.2018 15:00:00 15,7 10,9 15,0 18 10 22 12 ZW 1019,7 10
17.10.2018 14:00:00 15,5 10,7 15,0 18 10 - - ZW 1019,6 10
17.10.2018 13:00:00 15,5 11,1 15,0 21 11 22 12 ZW 1019,6 10
17.10.2018 12:00:00 15,6 10,8 15,0 21 11 22 12 ZW 1019,5 10
17.10.2018 11:00:00 15,6 11,1 15,0 21 11 25 14 ZW 1019,4 10
17.10.2018 10:00:00 15,8 12,2 15,0 18 10 22 12 ZW 1019,0 10
17.10.2018 09:00:00 15,9 12,2 15,0 21 11 22 12 ZW 1018,7 10
17.10.2018 08:00:00 16,0 13,0 15,0 16 9 18 10 ZW 1018,3 10
17.10.2018 07:00:00 16,1 12,5 15,0 15 8 25 14 WZW 1017,9 10
17.10.2018 06:00:00 16,1 12,7 15,0 24 13 25 14 WZW 1017,9 10
17.10.2018 05:00:00 16,1 13,8 15,0 24 13 25 14 WZW 1017,5 10
17.10.2018 04:00:00 16,4 14,4 15,0 26 14 25 14 ZW 1017,6 10
17.10.2018 03:00:00 16,3 14,4 15,0 22 12 25 14 ZW 1017,6 10
17.10.2018 02:00:00 16,6 14,2 15,0 24 13 25 14 ZW 1017,6 10
17.10.2018 01:00:00 16,8 14,9 15,0 21 11 25 14 ZW 1017,5 10
17.10.2018 00:00:00 16,8 15,1 15,0 26 14 29 16 ZW 1017,7 10
16.10.2018 23:00:00 17,3 14,1 15,0 24 13 25 14 ZW 1017,7 10
16.10.2018 22:00:00 18,0 12,5 15,0 21 11 22 12 ZW 1017,3 10
16.10.2018 21:00:00 19,4 12,9 15,0 21 11 29 16 Z 1017,1 10
16.10.2018 20:00:00 18,8 13,2 15,0 18 10 25 14 OZO 1017,1 10
16.10.2018 19:00:00 19,0 12,5 15,0 18 10 18 10 ZO 1017,2 10
16.10.2018 18:00:00 18,8 12,8 15,0 16 9 18 10 ZZO 1016,9 10
16.10.2018 17:00:00 18,9 12,3 15,0 18 10 22 12 Z 1017,2 10
16.10.2018 16:00:00 17,9 13,1 15,0 22 12 22 12 ZZO 1017,2 10
16.10.2018 15:00:00 17,8 13,3 15,0 21 11 22 12 Z 1017,3 10
16.10.2018 14:00:00 17,7 13,2 15,0 21 11 25 14 Z 1017,6 10
16.10.2018 13:00:00 17,6 13,2 15,0 18 10 22 12 Z 1017,5 10
16.10.2018 12:00:00 17,3 13,5 15,0 24 13 25 14 Z 1017,4 10
16.10.2018 11:00:00 17,1 13,9 15,0 26 14 25 14 Z 1017,2 10
16.10.2018 10:00:00 16,9 14,0 15,0 26 14 25 14 ZZO 1016,9 10
16.10.2018 09:00:00 16,7 14,0 15,0 24 13 25 14 ZZO 1016,6 10
16.10.2018 08:00:00 16,6 15,1 15,0 24 13 25 14 ZO 1016,1 6
16.10.2018 07:00:00 16,3 16,1 15,0 18 10 22 12 O 1015,9 5
16.10.2018 06:00:00 15,3 15,3 15,0 9 5 14 8 O 1015,9 0,4
16.10.2018 05:00:00 14,9 14,8 15,0 5 3 7 4 NNO 1016,0 0,5
16.10.2018 04:00:00 15,1 14,9 15,0 9 5 11 6 NW 1016,0 0,5
16.10.2018 03:00:00 15,8 15,4 15,0 8 4 11 6 WNW 1016,0 4,2
16.10.2018 02:00:00 16,0 15,4 15,0 9 5 11 6 WNW 1015,9 7
16.10.2018 01:00:00 16,3 15,6 15,0 5 3 11 6 ZZW 1015,8 7
16.10.2018 00:00:00 16,4 15,5 15,0 4 2 7 4 Z 1015,5 8
15.10.2018 23:00:00 16,3 15,6 15,0 9 5 11 6 WNW 1015,1 7
15.10.2018 22:00:00 16,7 15,8 15,0 8 4 7 4 W 1014,6 8
15.10.2018 21:00:00 16,8 16,0 15,0 9 5 11 6 W 1014,0 7
15.10.2018 20:00:00 16,9 15,8 15,0 9 5 14 8 WZW 1013,7 9
15.10.2018 19:00:00 17,2 15,9 15,0 15 8 18 10 ZW 1013,4 10
15.10.2018 18:00:00 17,4 15,6 15,0 16 9 25 14 ZW 1012,5 10
15.10.2018 17:00:00 17,7 15,3 15,0 22 12 25 14 ZW 1012,1 10
15.10.2018 16:00:00 17,7 15,4 15,0 24 13 25 14 ZZW 1011,7 10

tt = temperatuur
td = dauwpunt
tw = water temperatuur
ff = windsnelheid
fx = windstoten
dd = windrichting
ppp = luchtdruk
vv = zicht

Weerstations in de omgeving